Theta_e
313 313 314 314 313 313 313 313 313 313 313 313 312 312 312 312 312 312 312 312 312 312 310 311 311 311 312 312 311 313 312 310 305 304 305 304 302 298 295 290 288 287 286
313 313 313 314 313 313 313 312 312 312 312 312 312 312 311 311 311 311 311 311 311 311 310 310 310 310 309 309 310 312 311 309 308 303 303 301 297 292 294 294 295 290 285
313 313 313 313 313 312 312 311 311 311 311 311 311 311 311 311 310 310 310 310 310 311 310 309 309 308 307 308 309 310 309 310 306 301 301 297 296 296 294 294 292 287 285
312 312 312 312 312 313 312 312 312 311 311 310 310 310 310 309 309 309 309 309 309 310 309 308 308 307 307 309 308 308 308 308 304 300 299 297 295 295 295 292 288 286 286
310 310 311 311 311 311 311 312 311 311 310 310 310 310 309 309 308 308 308 308 308 308 308 308 306 306 308 308 307 306 306 304 302 299 297 295 295 294 294 291 287 287 287
309 310 310 310 309 309 309 309 310 311 311 310 309 309 308 308 308 307 307 307 307 306 305 305 305 305 307 307 307 306 305 303 302 300 298 295 294 294 293 289 288 287 286
309 309 308 308 309 309 309 308 308 308 309 309 309 308 308 306 305 305 305 305 305 305 304 303 303 304 305 305 305 303 302 299 298 298 299 296 294 293 291 291 289 290 291
305 306 307 307 307 307 307 308 307 307 307 307 307 307 307 307 305 303 303 303 303 303 302 302 302 303 304 304 302 300 299 297 295 295 296 295 294 294 294 294 293 291 289
304 305 305 306 307 307 307 307 307 307 306 305 305 305 305 305 303 302 301 301 300 300 300 300 301 300 301 301 299 298 296 294 293 292 293 293 293 293 293 292 290 288 287
301 301 303 305 305 306 306 307 305 305 304 303 303 302 302 303 302 301 299 298 298 298 298 299 299 299 299 298 296 294 293 293 292 292 292 292 291 292 292 291 291 288 287
299 300 301 303 304 304 304 304 304 304 302 300 300 299 299 298 298 297 297 296 296 296 297 297 296 295 295 293 291 291 292 292 291 291 291 290 291 291 290 289 288 287 287
297 299 299 301 302 302 302 303 303 302 301 299 297 297 296 295 294 293 294 295 295 295 295 293 293 291 290 290 288 289 290 291 290 290 289 289 290 290 289 288 287 287 286
297 298 299 299 300 301 301 301 301 298 297 297 296 295 293 293 293 294 294 295 293 292 290 289 289 289 288 288 288 289 289 289 289 289 289 290 290 289 288 286 286 286 285
296 297 298 298 298 298 298 296 297 297 296 295 293 293 293 292 293 293 292 290 289 289 288 288 287 287 287 287 287 288 288 289 289 290 290 289 288 288 288 287 287 286 285
295 296 296 296 296 296 295 294 294 292 292 291 292 290 291 291 290 290 289 288 288 288 287 286 286 286 286 287 287 287 288 288 289 289 288 288 288 288 287 287 286 285 285
294 294 294 294 295 294 293 292 291 289 289 289 289 289 289 289 288 287 287 287 287 287 286 286 286 286 286 287 287 287 288 288 288 288 288 288 288 287 287 286 285 285 284
292 292 291 291 292 292 291 289 289 288 288 288 288 289 289 290 290 287 286 286 286 286 286 286 286 286 287 287 287 287 288 288 287 287 287 287 287 286 286 285 284 284 283
290 290 290 290 290 289 289 288 287 287 287 288 288 288 289 289 289 287 287 286 286 286 286 286 287 287 287 287 287 287 287 287 287 287 286 286 286 285 285 284 283 283 282
288 288 288 288 287 288 287 287 287 287 287 287 287 287 288 288 288 287 287 287 286 286 286 286 286 286 286 286 286 286 286 285 285 285 285 284 284 283 282 282 281 280 280
285 286 286 286 286 287 287 287 286 287 287 287 287 288 287 287 287 287 287 287 286 286 286 286 286 286 285 285 285 285 285 284 284 284 283 282 282 281 280 280 279 278 278
283 284 284 285 286 286 287 286 286 286 286 287 287 287 287 287 287 287 287 286 286 286 286 285 285 285 284 284 284 284 283 283 282 282 282 281 281 280 279 278 277 277 276
282 283 283 284 285 286 286 286 286 286 286 286 286 285 285 285 284 285 285 285 284 284 284 283 283 282 282 282 282 281 281 281 281 280 280 279 279 278 277 276 276 275 274
281 282 283 284 285 285 285 285 285 284 284 284 284 284 283 283 283 283 283 283 283 282 282 282 281 281 281 280 280 280 279 279 279 278 278 277 276 276 275 274 273 272 271
281 281 282 282 282 283 283 283 283 283 283 282 282 282 282 281 281 281 280 280 279 279 278 278 277 277 277 276 276 276 275 275 275 274 274 273 273 272 272 271 271 270 270
280 279 280 280 280 281 281 281 281 281 281 280 279 279 278 277 277 277 277 276 276 276 275 275 274 274 274 273 273 273 273 273 273 272 272 272 271 271 270 270 270 270 269
278 278 278 278 279 279 279 278 278 277 277 276 276 276 276 276 275 275 274 274 273 272 272 272 272 272 272 272 271 271 271 271 270 270 270 270 270 270 269 269 269 268 268
Wind_Speed
15 17 18 18 16 14 17 20 22 23 24 26 28 31 33 34 36 38 41 42 45 46 46 50 53 53 52 55 61 60 58 57 53 46 43 38 34 32 35 40 40 39 35
18 19 18 19 21 22 25 26 26 28 29 31 32 35 37 38 38 38 39 40 42 43 42 45 51 51 52 54 57 58 58 54 52 51 49 39 33 32 34 41 39 35 36
21 21 21 23 24 25 27 28 29 31 33 34 35 37 39 40 41 40 39 39 41 41 42 43 45 46 45 47 55 56 54 53 49 47 46 38 36 31 31 31 31 38 35
31 30 29 27 26 28 30 31 34 36 38 38 39 40 40 39 39 40 40 40 41 42 42 42 42 40 43 46 50 50 52 51 49 44 43 40 32 31 35 29 37 37 35
36 37 36 34 33 32 32 34 34 35 37 39 41 41 41 40 40 39 39 40 40 42 41 41 40 38 41 43 46 48 48 48 46 43 43 41 35 35 38 33 38 38 37
30 33 36 37 34 33 33 34 35 35 36 36 37 37 37 37 38 37 36 38 39 40 41 41 39 38 40 39 43 45 43 43 44 44 45 42 38 37 32 35 42 37 37
31 32 33 34 35 33 32 33 34 34 34 35 36 36 37 35 32 32 33 35 38 40 39 40 38 36 38 37 39 40 40 38 35 39 44 41 39 35 34 40 40 39 36
33 34 35 37 37 35 32 32 31 33 36 37 37 36 35 35 32 30 31 34 38 38 38 36 35 36 35 34 34 34 35 33 32 35 34 34 29 27 32 34 31 31 29
34 34 35 36 39 41 40 38 34 34 33 33 34 36 37 35 30 29 29 33 36 37 35 33 34 35 32 31 29 29 30 30 29 29 26 26 30 27 27 29 28 25 29
35 37 37 38 39 40 41 41 41 39 39 38 35 32 34 34 33 30 27 31 35 34 33 33 31 30 27 27 26 26 28 30 32 30 29 30 26 25 26 21 19 26 27
34 35 35 36 37 38 39 39 40 39 38 38 38 34 31 29 28 27 27 29 31 31 30 29 26 25 23 18 20 23 26 28 32 30 28 25 23 22 20 20 18 20 23
36 36 35 35 35 35 35 36 38 39 40 38 35 32 29 26 23 21 22 21 27 26 25 22 19 17 14 13 19 19 22 26 30 31 25 20 18 18 14 12 14 16 18
38 37 36 34 32 32 35 37 38 36 34 33 32 30 27 23 21 19 20 21 22 20 15 14 11 10 11 12 17 15 21 26 29 27 21 17 11 7 8 12 16 19 21
39 37 35 33 34 34 34 34 33 33 32 31 29 28 24 21 19 16 15 14 15 12 11 8 6 6 9 14 18 17 22 22 20 19 17 10 9 8 9 12 17 20 22
37 36 36 36 34 34 32 31 30 28 28 24 21 19 18 16 14 10 7 8 9 8 7 3 6 8 12 16 18 16 17 17 16 14 11 7 7 10 13 14 16 19 22
37 37 36 35 35 32 30 28 24 20 15 12 9 9 9 9 7 2 1 2 4 5 3 1 7 8 12 15 17 16 14 15 10 11 12 11 13 17 17 17 19 21 22
38 37 36 33 31 28 22 18 14 10 6 4 2 3 5 5 2 5 3 2 1 3 5 5 4 12 10 12 13 15 14 13 13 14 15 18 20 20 18 18 20 22 23
37 36 35 31 24 20 15 12 8 5 4 3 3 3 3 4 6 7 6 4 6 4 7 6 4 1 4 8 11 14 15 15 17 18 20 21 22 20 19 18 20 21 24
34 31 27 23 19 16 13 10 8 7 6 5 2 2 3 5 7 9 7 4 3 2 3 3 2 2 4 4 6 8 11 14 17 19 21 20 19 17 17 18 19 21 23
25 22 17 17 16 13 11 9 8 6 4 2 3 4 4 4 4 5 4 2 3 5 5 5 6 7 8 9 11 11 13 15 17 17 17 16 15 16 17 19 20 21 21
18 14 12 14 12 10 9 9 7 6 5 4 4 4 3 1 3 3 3 2 2 3 4 5 7 9 10 11 12 13 13 13 14 14 15 16 17 17 18 19 19 19 19
12 10 9 11 10 9 9 9 7 5 4 3 2 3 2 2 2 2 2 2 3 4 5 7 8 9 10 11 12 13 14 14 15 16 17 18 18 19 19 19 19 19 20
7 6 8 10 10 10 10 9 7 6 5 5 4 4 4 3 3 3 3 3 5 6 8 9 10 12 13 14 15 15 16 17 18 19 19 20 21 21 21 20 20 20 19
5 6 8 8 9 8 8 7 6 5 4 4 3 2 2 2 2 3 5 7 8 9 11 12 13 14 16 16 17 18 18 18 19 19 20 20 20 20 20 19 19 18 18
3 4 5 5 5 5 5 4 4 3 2 1 2 2 4 5 6 8 9 11 12 14 15 16 16 17 18 19 19 20 20 19 20 20 21 21 20 20 20 19 19 20 20
3 3 4 4 4 3 3 2 1 1 2 4 5 7 9 11 12 13 15 15 16 17 17 17 17 17 17 18 19 19 19 20 20 21 21 21 20 21 20 20 19 19 19
Wind_Direction
338 339 339 334 323 311 308 310 304 295 290 286 281 278 273 270 267 265 264 265 265 265 265 263 264 266 265 267 271 269 266 261 257 261 263 260 248 242 229 223 223 227 229
327 322 318 315 311 301 300 303 300 297 293 290 286 282 279 276 272 269 268 267 267 269 269 267 265 265 265 267 268 268 269 268 263 254 259 251 235 224 223 222 227 219 225
340 327 316 309 301 295 291 289 290 290 289 286 286 284 283 281 280 278 275 272 270 269 270 269 269 268 267 264 266 269 268 265 261 256 251 236 234 229 222 218 219 223 223
334 332 327 319 307 299 293 290 289 288 287 287 286 286 284 281 277 277 275 272 272 271 271 271 270 268 268 268 270 269 266 264 264 255 245 239 230 226 219 212 213 215 218
326 324 325 322 316 311 303 295 290 288 288 288 288 288 285 280 276 274 274 273 272 272 273 272 271 269 270 269 270 271 270 268 261 249 239 230 226 214 210 208 209 212 218
320 320 320 320 319 316 312 305 297 294 292 289 288 288 286 283 281 277 272 271 271 271 271 271 271 268 270 268 269 272 272 267 259 249 233 227 221 211 207 205 208 208 216
314 314 316 316 316 315 313 311 309 305 301 297 293 290 287 284 280 275 271 268 267 268 269 272 272 267 269 270 271 272 271 267 263 255 242 231 216 210 199 210 213 216 225
313 313 310 310 313 315 315 312 312 312 311 306 300 294 290 287 282 276 273 270 268 268 270 270 270 266 266 268 270 268 264 256 245 239 244 228 207 206 224 224 218 221 230
315 313 311 310 309 309 310 310 310 310 312 310 307 303 296 289 280 273 269 269 271 275 273 270 269 270 269 267 266 261 253 245 238 234 214 204 208 228 224 214 217 220 227
315 313 313 312 309 306 306 307 307 307 306 304 300 299 295 292 287 278 270 272 274 275 276 275 274 272 268 266 264 258 243 234 219 208 204 207 226 221 215 217 232 224 227
312 312 312 309 308 308 307 308 307 308 309 307 304 300 296 292 288 281 274 270 273 276 276 276 276 275 275 269 256 250 242 234 211 203 204 206 208 214 219 220 226 230 233
310 309 310 309 308 307 306 305 306 307 305 304 303 303 303 299 295 288 277 273 271 270 274 278 276 274 270 248 239 242 237 218 206 203 202 205 204 209 216 229 235 239 238
307 306 306 305 306 306 306 305 305 306 306 304 301 303 307 303 298 290 280 275 266 265 274 280 272 250 233 220 223 224 213 203 205 201 200 196 204 212 229 233 240 240 242
305 305 304 303 305 304 304 303 302 301 301 301 302 302 302 299 293 287 280 259 253 262 288 272 244 219 199 205 201 203 200 208 220 219 193 193 198 227 244 255 248 241 240
298 300 302 300 303 303 303 303 301 300 298 299 301 300 298 293 288 285 273 263 263 275 290 235 170 158 175 192 195 200 213 217 198 196 202 222 269 281 284 269 248 241 243
293 297 300 300 300 300 302 304 302 298 293 296 305 311 313 307 298 262 310 202 266 300 319 205 161 167 185 195 203 207 207 195 216 233 235 256 284 291 280 262 248 248 248
292 293 295 296 295 295 296 297 294 287 299 281 298 331 346 344 2 131 101 136 63 53 45 70 123 174 184 209 212 207 216 254 260 257 268 273 286 290 272 262 256 254 252
293 292 293 291 287 283 278 274 269 278 287 277 308 349 16 61 96 112 118 113 110 72 45 36 29 22 224 233 234 243 250 260 265 270 271 278 282 275 266 261 257 257 256
293 292 292 284 274 268 258 245 242 259 261 258 236 134 125 104 138 142 151 154 129 195 310 327 327 303 287 272 260 257 258 261 263 267 271 272 269 265 263 260 261 262 257
291 290 286 283 271 257 235 229 227 241 238 200 160 144 134 120 127 155 175 192 224 242 255 268 265 261 259 256 258 261 263 268 271 269 269 268 268 264 263 264 264 263 264
290 282 274 266 249 222 213 214 205 176 143 112 81 80 87 141 171 164 168 184 227 255 265 267 269 270 273 274 277 280 280 278 277 277 276 274 272 270 266 264 263 263 262
290 280 259 240 221 202 191 183 168 157 150 137 122 136 137 138 151 166 181 216 251 265 269 273 278 279 280 282 282 282 283 284 285 284 283 280 277 273 269 268 267 266 266
273 246 221 202 189 183 178 173 174 175 174 172 168 168 166 180 195 212 228 246 259 269 279 283 285 287 288 288 289 288 289 288 287 285 283 280 278 276 275 274 271 268 267
252 222 204 188 179 177 177 177 178 179 175 176 174 179 199 218 250 274 282 284 287 288 287 289 291 293 293 292 292 291 289 288 287 286 283 281 279 278 278 275 273 270 267
212 204 183 172 167 163 159 159 160 157 148 172 227 256 275 282 286 288 289 291 292 292 293 293 293 293 293 292 291 291 290 289 286 284 282 281 281 280 277 275 274 273 272
145 146 139 137 138 133 121 120 159 212 257 280 289 293 294 295 294 294 294 294 295 297 299 299 300 299 297 294 292 290 288 287 285 283 281 281 280 278 276 274 272 271 269